Grand Island, NE

12:53 AM CDT on September 26, 2017 (GMT -0500)
Central Nebraska Regional

Weather History for KGRI - October, 2013

Change the Weather History Date:

Thursday, October 24, 2013

  Actual Average Record
Temperature  
Mean Temperature 41 °F 49 °F  
Max Temperature 47 °F 61 °F 86 °F (1927)
Min Temperature 34 °F 37 °F 18 °F (1938)
Degree Days  
Heating Degree Days 24 16  
Month to date heating degree days 271 284  
Since 1 July heating degree days 295 399  
Cooling Degree Days 0 0  
Month to date cooling degree days 15 10  
Year to date cooling degree days 1265 1033  
Moisture  
Dew Point 30 °F    
Average Humidity 62    
Maximum Humidity 86    
Minimum Humidity 37    
Precipitation  
Precipitation T in 0.06 in 1.07 in (1997)
Month to date precipitation 3.64 1.53  
Year to date precipitation 25.43 24.53  
Snow  
Snow 0.00 in 0.00 in 0.90 in (1957)
Month to date snowfall 0.0 0.6  
Since 1 July snowfall 0.0 0.7  
Since 1 September snowfall 0.0 0.7  
Snow Depth 0.00 in    
Sea Level Pressure  
Sea Level Pressure 30.37 in    
Wind  
Wind Speed 5 mph (NNW)    
Max Wind Speed 22 mph    
Max Gust Speed 26 mph    
Visibility 10 miles    
Events      
T = Trace of Precipitation, MM = Missing Value Source: NWS Daily Summary

Daily Weather History Graph

Daily Weather History Graph

Search for Another Location

Airport or City:

Trip Planner

Search our weather history database for the weather conditions in past years. The results will help you decide how hot, cold, wet, or windy it might be!

Date:

Astronomy

Oct. 24, 2013 Rise Set
Actual Time 7:55 AM CDT 6:39 PM CDT
Civil Twilight 7:26 AM CDT 7:07 PM CDT
Nautical Twilight 6:54 AM CDT 7:39 PM CDT
Astronomical Twilight 6:22 AM CDT 8:11 PM CDT
Moon 11:03 PM CDT (10/24) 12:58 PM CDT (10/24)
Length of Visible Light 11h 40m
Length of Day
10h 44m
Waning Gibbous, 71% of the Moon is Illuminated
Oct 24
Waning Gibbous
Oct 26
Last Quarter
Nov 3
New
Nov 9
First Quarter
Nov 17
Full

Hourly Weather History & Observations

Time (CDT) Temp. Windchill Dew Point Humidity Pressure Visibility Wind Dir Wind Speed Gust Speed Precip Events Conditions
12:53 AM 41.0 °F 38.0 °F 37.0 °F 86% 30.27 in 10.0 mi North 4.6 mph - N/A   Overcast
1:04 AM 41.0 °F 38.0 °F 37.4 °F 87% 30.26 in 10.0 mi NNE 4.6 mph - N/A   Overcast
1:53 AM 39.9 °F 36.7 °F 36.0 °F 86% 30.28 in 10.0 mi North 4.6 mph - N/A   Overcast
2:11 AM 39.2 °F 35.0 °F 35.6 °F 87% 30.28 in 10.0 mi North 5.8 mph - N/A   Mostly Cloudy
2:53 AM 39.9 °F 32.9 °F 35.1 °F 83% 30.30 in 10.0 mi North 11.5 mph - N/A   Overcast
3:22 AM 39.2 °F 32.0 °F 35.6 °F 87% 30.30 in 10.0 mi North 11.5 mph - N/A   Overcast
3:40 AM 37.4 °F 29.8 °F 35.6 °F 93% 30.31 in 10.0 mi North 11.5 mph - 0.00 in   Overcast
3:53 AM 37.9 °F 30.9 °F 34.0 °F 86% 30.32 in 10.0 mi North 10.4 mph - 0.00 in   Overcast
4:31 AM 37.4 °F 30.8 °F 33.8 °F 87% 30.31 in 10.0 mi North 9.2 mph - N/A   Overcast
4:53 AM 37.9 °F 32.1 °F 32.0 °F 79% 30.33 in 10.0 mi North 8.1 mph - N/A   Overcast
5:53 AM 37.0 °F 33.3 °F 30.9 °F 79% 30.36 in 10.0 mi North 4.6 mph - N/A   Overcast
6:53 AM 36.0 °F 31.1 °F 30.0 °F 79% 30.39 in 10.0 mi North 5.8 mph - N/A   Overcast
7:53 AM 34.0 °F 29.8 °F 28.9 °F 82% 30.41 in 10.0 mi North 4.6 mph - N/A   Overcast
8:53 AM 36.0 °F 31.1 °F 27.0 °F 70% 30.43 in 10.0 mi North 5.8 mph - N/A   Overcast
9:53 AM 39.0 °F 33.4 °F 26.1 °F 60% 30.45 in 10.0 mi North 8.1 mph - N/A   Overcast
10:53 AM 41.0 °F 35.8 °F 23.0 °F 49% 30.46 in 10.0 mi North 8.1 mph - N/A   Overcast
11:53 AM 42.1 °F 39.2 °F 21.9 °F 45% 30.46 in 10.0 mi North 4.6 mph - N/A   Overcast
12:53 PM 44.1 °F 42.5 °F 21.9 °F 42% 30.44 in 10.0 mi Variable 3.5 mph - N/A   Overcast
1:53 PM 44.1 °F - 21.0 °F 40% 30.43 in 10.0 mi Calm Calm - N/A   Overcast
2:53 PM 46.0 °F 42.5 °F 21.9 °F 39% 30.40 in 10.0 mi WNW 6.9 mph - N/A   Overcast
3:53 PM 46.0 °F 43.1 °F 23.0 °F 40% 30.39 in 10.0 mi WNW 5.8 mph - N/A   Overcast
4:53 PM 46.0 °F 44.8 °F 23.0 °F 40% 30.39 in 10.0 mi NNW 3.5 mph - N/A   Overcast
5:53 PM 46.0 °F 43.1 °F 27.0 °F 47% 30.39 in 10.0 mi WNW 5.8 mph - N/A   Overcast
6:53 PM 44.1 °F 40.8 °F 28.9 °F 55% 30.39 in 10.0 mi West 5.8 mph - N/A   Overcast
7:53 PM 43.0 °F 41.3 °F 30.9 °F 62% 30.40 in 10.0 mi West 3.5 mph - N/A   Overcast
8:53 PM 41.0 °F - 32.0 °F 70% 30.41 in 10.0 mi Calm Calm - N/A   Overcast
9:53 PM 41.0 °F 39.0 °F 32.0 °F 70% 30.41 in 10.0 mi South 3.5 mph - N/A   Overcast
10:53 PM 41.0 °F 39.0 °F 33.1 °F 73% 30.41 in 10.0 mi SSE 3.5 mph - N/A   Overcast
11:53 PM 42.1 °F 38.4 °F 32.0 °F 67% 30.41 in 10.0 mi South 5.8 mph - N/A   Overcast